Location: Grand Mazuras
(45.9128°N, 1.7636°E)
Time: 17:57:25
(UTC+00:00)

Cosmos 44 Rocket - Pass Details

Date: 18 April 2021
Orbit: 636 x 754 km, 65.1° (Epoch: 12 May)

Event Time Altitude Azimuth Distance (km) Brightness Sun altitude
Exits shadow 22:36:36 45° 20° (NNE) 1,008 4.3 -30.5°
Drops below altitude 10° 22:40:15 10° 33° (NNE) 2,272 6.3 -30.7°
Sets 22:42:41 0° 35° (NE) 3,208 7.2 -30.8°
